Regional Weather Roundup
Issued by NWS Kansas City/Pleasant Hill, MO

Home | Current Version | Previous Version | Graphics & Text | Print | Product List | Glossary Off
Versions: 1 2 3 4 5 6 7 8 9 10 11 12 13 14 15 16 17 18 19 20 21 22 23 24 25 26 27 28 29 30 31 32 33 34 35 36 37 38 39 40 41 42 43 44 45 46 47 48 49 50

000
ASUS43 KEAX 251811
RWREAX

WEATHER ROUNDUP FOR EASTERN KANSAS AND NORTHWEST MISSOURI
NATIONAL WEATHER SERVICE KANSAS CITY/PLEASANT HILL MO
1200 PM CST TUE NOV 25 2014

KSZ040-057-103>105-MOZ028-029-037-043-251900-
...KANSAS CITY METROPOLITAN AREA...

CITY           SKY/WX    TMP DP  RH WIND       PRES   REMARKS
K.C. INTL      SUNNY     35  11  36 SW7       30.17F WCI  29
6HR MIN TEMP:  20; 6HR MAX TEMP:  35;

K.C. DOWNTOWN  SUNNY     37   9  31 SW8       30.19F WCI  31
6HR MIN TEMP:  24; 6HR MAX TEMP:  37;

LEES SUMMIT    SUNNY     36   6  28 SW6       30.19F WCI  31
6HR MIN TEMP:  22; 6HR MAX TEMP:  36;

OLATHE - IXD   SUNNY     36  10  34 SW7       30.19F WCI  30
6HR MIN TEMP:  20; 6HR MAX TEMP:  36;

OLATHE - OJC   SUNNY     36  11  35 SW9       30.18F WCI  29
6HR MIN TEMP:  22; 6HR MAX TEMP:  37;

LAWRENCE       SUNNY     37  10  32 S6        30.19F WCI  32

$$

MOZ001>008-011>017-020>025-030>033-038>040-044>046-053-054-251900-
...NORTHERN AND CENTRAL MISSOURI...

CITY           SKY/WX    TMP DP  RH WIND       PRES   REMARKS
ST. JOSEPH     SUNNY     34  13  41 S7        30.17F WCI  28
6HR MIN TEMP:  17; 6HR MAX TEMP:  35;

MOSBY          CLEAR     34   9  35 SW6       30.19F WCI  29
WARRENSBURG    SUNNY     36  14  41 S6        30.20F WCI  31
WHITEMAN AFB   SUNNY     36  14  39 VRB2      30.19F
6HR MIN TEMP:  22; 6HR MAX TEMP:  36;

CLINTON        SUNNY     36  19  51 W9        30.23F WCI  29
SEDALIA        SUNNY     36  17  46 W9        30.21F WCI  29
6HR MIN TEMP:  24; 6HR MAX TEMP:  36;

WARSAW         NOT AVBL
MARSHALL       SUNNY     36  19  51 W5        30.20F WCI  32
CHILLICOTHE      N/A     34  15  46 W6        30.20F WCI  29
6HR MIN TEMP:  22; 6HR MAX TEMP:  34;

MOBERLY        SUNNY     34  18  51 W8        30.18F WCI  27
KIRKSVILLE     SUNNY     31  20  63 VRB6      30.17F WCI  25
6HR MIN TEMP:  20; 6HR MAX TEMP:  31;


$$

MOZ041-047>049-056>058-063>065-088>090-097-251900-
...EASTERN AND SOUTHERN MISSOURI...

CITY           SKY/WX    TMP DP  RH WIND       PRES   REMARKS
ST. LOUIS INTL MOSUNNY   37  22  54 SW5       30.21S WCI  33
6HR MIN TEMP:  30; 6HR MAX TEMP:  38;

SPIRIT OF STL  SUNNY     36  22  56 W8        30.20F WCI  30
COLUMBIA       SUNNY     35  19  52 VRB5      30.19F WCI  31
JEFFERSON CITY SUNNY     36  18  48 VRB6      30.22F WCI  31
MEXICO         SUNNY     36  25  64 W7        30.17F WCI  30
ROLLA          SUNNY     34  19  54 VRB5      30.18S WCI  30
LEBANON        SUNNY     39  14  35 W9        30.20F WCI  33
OSAGE BEACH    SUNNY     37  16  41 W5        30.21F WCI  34
SPRINGFIELD    SUNNY     38  16  40 VRB5      30.21F WCI  34
BRANSON        SUNNY     41  16  36 N5        30.23F
NEVADA         SUNNY     39  12  33 SW5       30.23F
JOPLIN         SUNNY     41  14  33 SW7       30.23F
WEST PLAINS    SUNNY     40  19  43 VRB5      30.21F

$$

IAZ060-094-KSZ022-034>040-054-083-096-NEZ052-066-093-251900-
...KANSAS...SOUTHEAST NEBRASKA AND IOWA...

CITY           SKY/WX    TMP DP  RH WIND       PRES   REMARKS
TOPEKA         SUNNY     40  13  33 CALM      30.18F
6HR MIN TEMP:  19; 6HR MAX TEMP:  40;

MANHATTAN      SUNNY     44  23  43 SW15      30.15F
EMPORIA        SUNNY     42  19  39 SW10      30.17F
CHANUTE        SUNNY     40   8  26 CALM      30.22F
WICHITA        SUNNY     47  22  37 SW13      30.18F
OMAHA          MOSUNNY   36  14  40 S9        30.10F WCI  29
LINCOLN        SUNNY     41  25  53 SW12      30.08F WCI  34
FALLS CITY     SUNNY     39  16  39 S8        30.13F WCI  33
LAMONI         SUNNY     31  12  45 SW8       30.13F WCI  23
DES MOINES     MOSUNNY   31  11  43 VRB6      30.13F WCI  25

$$



USA.gov is the U.S. government's official web portal to all federal, state and local government web resources and services.